Rush City, MN

12:21 AM CST on January 17, 2017 (GMT -0600)
Rush City Regional

Weather History for KROS - September, 2013

Change the Weather History Date:

Monday, September 30, 2013

  Actual Average (KCBG) Record (KCBG)
Temperature  
Mean Temperature 65 °F -  
Max Temperature 75 °F 66 °F 83 °F (1971)
Min Temperature 55 °F 40 °F 27 °F (1985)
Growing Degree Days 15 (Base 50)    
Moisture  
Dew Point 49 °F    
Average Humidity 57    
Maximum Humidity 70    
Minimum Humidity 42    
Precipitation  
Precipitation 0.00 in - - ()
Sea Level Pressure  
Sea Level Pressure 29.67 in    
Wind  
Wind Speed 9 mph (South)    
Max Wind Speed 15 mph    
Max Gust Speed 23 mph    
Visibility 10 miles    
Events      
Averages and records for this station are not official NWS values.
T = Trace of Precipitation, MM = Missing Value Source: NWS Daily Summary

Daily Weather History Graph

Daily Weather History Graph

Search for Another Location

Airport or City:

Trip Planner

Search our weather history database for the weather conditions in past years. The results will help you decide how hot, cold, wet, or windy it might be!

Date:

Astronomy

Sep. 30, 2013 Rise Set
Actual Time 7:09 AM CDT 6:53 PM CDT
Civil Twilight 6:39 AM CDT 7:22 PM CDT
Nautical Twilight 6:04 AM CDT 7:57 PM CDT
Astronomical Twilight 5:29 AM CDT 8:32 PM CDT
Moon 2:35 AM CDT (9/30) 4:34 PM CDT (9/30)
Length of Visible Light 12h 43m
Length of Day
11h 44m
Waning Crescent, 19% of the Moon is Illuminated
Sep 30
Waning Crescent
Oct 4
New
Oct 11
First Quarter
Oct 18
Full
Oct 26
Last Quarter

Hourly Weather History & Observations

Time (CDT) Temp. Dew Point Humidity Pressure Visibility Wind Dir Wind Speed Gust Speed Precip Events Conditions
12:14 AM 59.5 °F 45.9 °F 61% 29.78 in 10.0 mi SSE 9.2 mph - N/A   Scattered Clouds
12:34 AM 59.0 °F 45.9 °F 62% 29.78 in 10.0 mi SSE 8.1 mph - N/A   Mostly Cloudy
12:55 AM 58.5 °F 45.9 °F 63% 29.77 in 10.0 mi SSE 8.1 mph - N/A   Mostly Cloudy
1:14 AM 58.1 °F 45.9 °F 64% 29.76 in 10.0 mi SSE 8.1 mph - N/A   Mostly Cloudy
1:34 AM 58.1 °F 45.9 °F 64% 29.76 in 10.0 mi SSE 6.9 mph - N/A   Mostly Cloudy
1:55 AM 58.3 °F 45.7 °F 63% 29.76 in 10.0 mi SSE 9.2 mph - N/A   Mostly Cloudy
2:14 AM 58.5 °F 45.9 °F 63% 29.76 in 10.0 mi SSE 8.1 mph - N/A   Mostly Cloudy
2:34 AM 58.6 °F 45.9 °F 63% 29.75 in 10.0 mi SSE 8.1 mph - N/A   Scattered Clouds
2:55 AM 58.6 °F 46.0 °F 63% 29.74 in 10.0 mi SSE 10.4 mph - N/A   Scattered Clouds
3:14 AM 59.0 °F 46.0 °F 62% 29.74 in 10.0 mi South 9.2 mph - N/A   Scattered Clouds
3:34 AM 59.0 °F 46.0 °F 62% 29.73 in 10.0 mi SSE 10.4 mph 17.3 mph N/A   Clear
3:55 AM 59.0 °F 46.0 °F 62% 29.72 in 10.0 mi SSE 10.4 mph 17.3 mph N/A   Clear
4:14 AM 58.8 °F 46.0 °F 63% 29.72 in 10.0 mi SSE 12.7 mph - N/A   Clear
4:34 AM 58.6 °F 46.0 °F 63% 29.72 in 10.0 mi South 11.5 mph - N/A   Clear
4:55 AM 58.3 °F 45.9 °F 63% 29.71 in 10.0 mi SSE 10.4 mph 18.4 mph N/A   Clear
5:14 AM 58.1 °F 45.7 °F 63% 29.70 in 10.0 mi South 9.2 mph - N/A   Scattered Clouds
5:35 AM 57.6 °F 45.9 °F 65% 29.70 in 10.0 mi SSE 11.5 mph - N/A   Scattered Clouds
5:55 AM 56.8 °F 45.9 °F 67% 29.70 in 10.0 mi South 10.4 mph - N/A   Mostly Cloudy
6:14 AM 56.5 °F 45.9 °F 68% 29.70 in 10.0 mi SSE 10.4 mph - N/A   Mostly Cloudy
6:34 AM 55.9 °F 45.9 °F 69% 29.69 in 10.0 mi South 8.1 mph - N/A   Mostly Cloudy
6:55 AM 55.8 °F 45.9 °F 69% 29.69 in 10.0 mi SSE 6.9 mph - N/A   Mostly Cloudy
7:14 AM 55.8 °F 46.0 °F 70% 29.69 in 10.0 mi South 8.1 mph 16.1 mph N/A   Mostly Cloudy
7:34 AM 55.8 °F 46.0 °F 70% 29.68 in 10.0 mi SSE 9.2 mph - N/A   Mostly Cloudy
7:55 AM 56.5 °F 46.6 °F 69% 29.68 in 10.0 mi South 9.2 mph - N/A   Scattered Clouds
8:14 AM 57.6 °F 46.9 °F 68% 29.68 in 10.0 mi South 12.7 mph 16.1 mph N/A   Clear
8:35 AM 58.1 °F 47.3 °F 67% 29.69 in 10.0 mi South 9.2 mph 17.3 mph N/A   Clear
8:55 AM 58.3 °F 47.3 °F 67% 29.68 in 10.0 mi South 11.5 mph - N/A   Clear
9:14 AM 59.7 °F 47.8 °F 65% 29.68 in 10.0 mi South 9.2 mph - N/A   Clear
9:35 AM 60.8 °F 48.2 °F 63% 29.67 in 10.0 mi South 10.4 mph - N/A   Clear
9:55 AM 61.5 °F 48.2 °F 62% 29.67 in 10.0 mi South 10.4 mph 19.6 mph N/A   Clear
10:14 AM 62.6 °F 48.6 °F 60% 29.67 in 10.0 mi South 13.8 mph 18.4 mph N/A   Clear
10:35 AM 62.8 °F 48.6 °F 60% 29.67 in 10.0 mi South 12.7 mph 21.9 mph N/A   Clear
10:55 AM 63.7 °F 48.9 °F 59% 29.66 in 10.0 mi South 12.7 mph 21.9 mph N/A   Clear
11:14 AM 65.1 °F 49.5 °F 57% 29.66 in 10.0 mi South 11.5 mph 20.7 mph N/A   Clear
11:35 AM 65.3 °F 49.3 °F 56% 29.66 in 10.0 mi South 11.5 mph 16.1 mph N/A   Clear
11:55 AM 66.9 °F 50.2 °F 55% 29.66 in 10.0 mi SSW 8.1 mph - N/A   Clear
12:14 PM 68.4 °F 50.0 °F 52% 29.66 in 10.0 mi South 11.5 mph 18.4 mph N/A   Clear
12:35 PM 69.1 °F 49.8 °F 50% 29.66 in 10.0 mi SSW 12.7 mph 17.3 mph N/A   Scattered Clouds
12:55 PM 70.0 °F 49.6 °F 48% 29.65 in 10.0 mi SSW 15.0 mph 20.7 mph N/A   Clear
1:14 PM 70.7 °F 49.8 °F 48% 29.65 in 10.0 mi South 13.8 mph 19.6 mph N/A   Clear
1:35 PM 71.2 °F 50.4 °F 48% 29.64 in 10.0 mi SSW 11.5 mph 21.9 mph N/A   Clear
1:55 PM 71.6 °F 49.8 °F 46% 29.64 in 10.0 mi South 10.4 mph - N/A   Clear
2:14 PM 72.1 °F 50.5 °F 46% 29.63 in 10.0 mi South 12.7 mph 23.0 mph N/A   Clear
2:35 PM 72.3 °F 50.4 °F 46% 29.63 in 10.0 mi South 12.7 mph 19.6 mph N/A   Clear
2:55 PM 73.0 °F 50.9 °F 46% 29.63 in 10.0 mi South 13.8 mph 18.4 mph N/A   Clear
3:14 PM 73.4 °F 51.1 °F 45% 29.63 in 10.0 mi South 11.5 mph 16.1 mph N/A   Clear
3:35 PM 74.3 °F 51.4 °F 45% 29.63 in 10.0 mi SSW 10.4 mph - N/A   Clear
3:55 PM 75.2 °F 51.6 °F 44% 29.62 in 10.0 mi South 9.2 mph 18.4 mph N/A   Clear
4:14 PM 75.4 °F 50.7 °F 42% 29.62 in 10.0 mi South 10.4 mph 19.6 mph N/A   Clear
4:35 PM 75.6 °F 51.3 °F 42% 29.62 in 10.0 mi South 9.2 mph 16.1 mph N/A   Clear
4:54 PM 75.7 °F 51.6 °F 43% 29.61 in 10.0 mi South 11.5 mph 16.1 mph N/A   Clear
5:14 PM 75.7 °F 51.3 °F 42% 29.61 in 10.0 mi South 8.1 mph 17.3 mph N/A   Clear
5:35 PM 75.4 °F 51.3 °F 43% 29.61 in 10.0 mi South 4.6 mph - N/A   Clear
5:54 PM 74.7 °F 51.8 °F 45% 29.61 in 10.0 mi Calm Calm - N/A   Clear
6:14 PM 73.8 °F 51.8 °F 46% 29.61 in 10.0 mi South 5.8 mph - N/A   Clear
6:35 PM 72.0 °F 51.8 °F 49% 29.61 in 10.0 mi Calm Calm - N/A   Clear
6:54 PM 69.4 °F 52.3 °F 54% 29.62 in 10.0 mi Calm Calm - N/A   Clear
7:14 PM 68.2 °F 52.7 °F 58% 29.62 in 10.0 mi Calm Calm - N/A   Clear
7:35 PM 68.4 °F 52.3 °F 57% 29.62 in 10.0 mi Calm Calm - N/A   Clear
7:54 PM 68.7 °F 51.8 °F 55% 29.62 in 10.0 mi SSE 4.6 mph - N/A   Clear
8:14 PM 67.6 °F 52.0 °F 57% 29.62 in 10.0 mi Calm Calm - N/A   Clear
8:34 PM 67.1 °F 52.2 °F 59% 29.62 in 10.0 mi SSE 8.1 mph - N/A   Clear
8:54 PM 67.1 °F 51.8 °F 58% 29.63 in 10.0 mi SSE 5.8 mph - N/A   Clear
9:15 PM 66.9 °F 51.3 °F 57% 29.63 in 10.0 mi Calm Calm - N/A   Clear
9:34 PM 65.8 °F 51.1 °F 59% 29.63 in 10.0 mi Calm Calm - N/A   Clear
9:55 PM 65.5 °F 50.9 °F 59% 29.63 in 10.0 mi SSE 6.9 mph - N/A   Scattered Clouds
10:14 PM 65.5 °F 50.9 °F 59% 29.63 in 10.0 mi SSE 6.9 mph - N/A   Clear
10:35 PM 65.7 °F 50.4 °F 58% 29.63 in 10.0 mi SSE 3.5 mph - N/A   Clear
10:55 PM 64.9 °F 50.2 °F 59% 29.63 in 10.0 mi Calm Calm - N/A   Clear
11:14 PM 65.1 °F 50.2 °F 58% 29.62 in 10.0 mi SSE 4.6 mph - N/A   Clear
11:34 PM 64.6 °F 50.0 °F 59% 29.63 in 10.0 mi South 6.9 mph - N/A   Clear
11:55 PM 63.1 °F 50.0 °F 62% 29.62 in 10.0 mi Calm Calm - N/A   Scattered Clouds